Find Local Weather

World > North America > United States > Ohio

Cincinnati, Ohio Regional Weather

Lat: 39.14N, Lon: 84.51W
Wx Zone: OHZ077
Warning FLW WEATHER ALERT - (More Info. Click Here) Warning
Feedback

Cincinnati, OH Regional Weather

Expires:201902161800;;031236
ASUS41 KCLE 161702
RWRCLE
OHIO REGIONAL WEATHER ROUNDUP
NATIONAL WEATHER SERVICE CLEVELAND, OH
1200 PM EST SAT FEB 16 2019

NOTE: "FAIR" INDICATES FEW OR NO CLOUDS BELOW 12,000 FEET WITH NO
SIGNIFICANT WEATHER AND/OR OBSTRUCTIONS TO VISIBILITY.


OHZ042-051>053-060>062-070>072-077>081-161800-
  SOUTHWEST OHIO
  
CITY           SKY/WX    TMP DP  RH WIND       PRES   REMARKS
CINC-COVINGTON FAIR      31  18  58 NE13      30.04S WCI  21          
CINC-LUNKEN    FAIR      33  20  58 NE12      30.08S WCI  24          
HAMILTON       PTSUNNY   29  20  69 E9        30.08R WCI  20          
DAYTON         CLOUDY    26  18  71 NE9       30.06F WCI  17          
WRIGHT-PAT AFB NOT AVBL                                               
DAYTON GENERAL CLOUDY    27  17  66 E8        30.05R WCI  19          
WILMINGTON     CLOUDY    25  18  74 NE13      30.04R WCI  14          
$$


SKY/WX - Weather  TMP - Temperature  DP - Dew Point  RH - Relative Humidity
WIND - Wind Direction/Speed PRES - Barometric Pressure VSB - Visibility
WCI - Wind Chill Index E13G22 Wind - East Wind 13 mph/Gusts of 22 mph